| time (UTC) | temp F | wind direction | speed knots | gust knots | rain 1hr in | rain 24hr in | rain mn in | humidity % | barometer mb |
| 20260506104002 | 57 | 157 | 0.0 | 0.0 | 0.00 | 0.00 | 0.00 | 90 | 1017.2 |
| 20260506103006 | 57 | 157 | 0.0 | 0.0 | 0.00 | 0.00 | 0.00 | 90 | 1017.1 |
| 20260506102459 | 57 | 157 | 0.0 | 0.0 | 0.00 | 0.00 | 0.00 | 90 | 1017.1 |
| 20260506102004 | 57 | 157 | 0.0 | 0.0 | 0.00 | 0.00 | 0.00 | 90 | 1017.1 |
| 20260506101504 | 57 | 157 | 0.0 | 0.0 | 0.00 | 0.00 | 0.00 | 89 | 1017.1 |
| 20260506100006 | 57 | 157 | 0.0 | 0.0 | 0.00 | 0.00 | 0.00 | 88 | 1017.0 |
| 20260506095503 | 58 | 157 | 0.0 | 0.0 | 0.00 | 0.01 | 0.00 | 88 | 1017.0 |
| 20260506095010 | 58 | 157 | 0.0 | 0.0 | 0.00 | 0.01 | 0.00 | 87 | 1017.0 |
| 20260506094002 | 58 | 157 | 0.0 | 0.0 | 0.00 | 0.01 | 0.00 | 87 | 1017.1 |
| 20260506093000 | 58 | 157 | 0.0 | 0.0 | 0.00 | 0.01 | 0.00 | 85 | 1017.0 |
| 20260506092459 | 58 | 157 | 0.0 | 0.0 | 0.00 | 0.01 | 0.00 | 84 | 1017.0 |
| 20260506092004 | 58 | 157 | 0.0 | 0.0 | 0.00 | 0.01 | 0.00 | 84 | 1017.0 |
| 20260506091502 | 58 | 157 | 0.0 | 0.0 | 0.00 | 0.01 | 0.00 | 84 | 1017.0 |
| 20260506090008 | 58 | 157 | 0.0 | 0.0 | 0.00 | 0.01 | 0.00 | 84 | 1017.0 |
| 20260506085500 | 58 | 157 | 0.0 | 0.0 | 0.00 | 0.01 | 0.00 | 84 | 1017.0 |
| 20260506084503 | 58 | 157 | 0.9 | 2.6 | 0.00 | 0.01 | 0.00 | 84 | 1017.0 |
| 20260506083503 | 58 | 157 | 0.0 | 0.0 | 0.00 | 0.01 | 0.00 | 85 | 1017.1 |
| 20260506083002 | 58 | 157 | 0.0 | 0.0 | 0.00 | 0.01 | 0.00 | 85 | 1017.0 |
| 20260506082504 | 58 | 157 | 0.0 | 0.0 | 0.00 | 0.01 | 0.00 | 84 | 1017.0 |
| 20260506082003 | 58 | 157 | 0.9 | 2.6 | 0.00 | 0.01 | 0.00 | 84 | 1017.0 |
| 20260506081502 | 59 | 157 | 0.9 | 2.6 | 0.00 | 0.01 | 0.00 | 82 | 1017.0 |
| 20260506080502 | 58 | 157 | 0.0 | 0.0 | 0.00 | 0.01 | 0.00 | 83 | 1016.9 |
| 20260506073503 | 58 | 157 | 0.0 | 0.0 | 0.00 | 0.02 | 0.00 | 83 | 1016.7 |
| 20260506072504 | 59 | 157 | 0.0 | 0.0 | 0.00 | 0.02 | 0.00 | 83 | 1016.7 |
| 20260506071459 | 59 | 157 | 0.0 | 0.0 | 0.00 | 0.02 | 0.00 | 82 | 1016.6 |
| 20260506070506 | 59 | 157 | 0.0 | 0.0 | 0.00 | 0.02 | 0.00 | 82 | 1016.5 |
| 20260506061506 | 59 | 157 | 1.7 | 4.3 | 0.00 | 0.04 | 0.02 | 80 | 1016.2 |
| 20260506061007 | 59 | 157 | 3.5 | 5.2 | 0.00 | 0.04 | 0.02 | 80 | 1016.2 |
| 20260506060506 | 59 | 157 | 3.5 | 6.1 | 0.00 | 0.04 | 0.02 | 80 | 1016.2 |
| 20260506045007 | 60 | 98 | 1.7 | 5.2 | 0.00 | 0.06 | 0.02 | 78 | 1015.4 |
| 20260506044506 | 60 | 121 | 2.6 | 5.2 | 0.00 | 0.06 | 0.02 | 79 | 1015.4 |
| 20260506044007 | 60 | 99 | 3.5 | 7.8 | 0.00 | 0.06 | 0.02 | 78 | 1015.4 |
| 20260506043008 | 60 | 92 | 3.5 | 7.8 | 0.00 | 0.06 | 0.02 | 78 | 1015.2 |
| 20260506042507 | 60 | 113 | 2.6 | 6.1 | 0.00 | 0.06 | 0.02 | 78 | 1015.1 |
| 20260506042007 | 60 | 113 | 2.6 | 5.2 | 0.00 | 0.06 | 0.02 | 78 | 1015.0 |
| 20260506041507 | 60 | 122 | 2.6 | 7.0 | 0.00 | 0.06 | 0.02 | 78 | 1014.9 |
| 20260506041004 | 60 | 109 | 2.6 | 7.0 | 0.00 | 0.06 | 0.02 | 78 | 1014.8 |
| 20260506040502 | 60 | 92 | 2.6 | 7.0 | 0.00 | 0.06 | 0.02 | 78 | 1014.6 |
| 20260506035504 | 60 | 126 | 2.6 | 4.3 | 0.00 | 0.07 | 0.02 | 78 | 1014.5 |
| 20260506035006 | 60 | 86 | 2.6 | 6.1 | 0.00 | 0.07 | 0.02 | 78 | 1014.3 |
| 20260506034505 | 60 | 116 | 3.5 | 7.0 | 0.00 | 0.07 | 0.02 | 78 | 1014.2 |
| 20260506034008 | 60 | 88 | 2.6 | 7.0 | 0.00 | 0.07 | 0.02 | 78 | 1014.2 |
| 20260506033506 | 60 | 109 | 2.6 | 7.0 | 0.00 | 0.07 | 0.02 | 78 | 1014.0 |
| 20260506033007 | 60 | 84 | 2.6 | 7.0 | 0.00 | 0.07 | 0.02 | 77 | 1013.8 |
| 20260506031507 | 60 | 83 | 2.6 | 6.1 | 0.00 | 0.07 | 0.02 | 78 | 1013.7 |
| 20260506025505 | 60 | 79 | 3.5 | 7.0 | 0.00 | 0.07 | 0.02 | 77 | 1013.3 |
| 20260506025007 | 60 | 67 | 3.5 | 7.0 | 0.00 | 0.07 | 0.02 | 78 | 1013.3 |
| 20260506024507 | 60 | 105 | 3.5 | 7.0 | 0.00 | 0.07 | 0.02 | 77 | 1013.1 |
| 20260506024006 | 60 | 91 | 2.6 | 5.2 | 0.00 | 0.07 | 0.02 | 78 | 1013.1 |
| 20260506023503 | 60 | 76 | 2.6 | 6.1 | 0.00 | 0.07 | 0.02 | 78 | 1013.0 |
| 20260506023007 | 60 | 128 | 1.7 | 4.3 | 0.00 | 0.07 | 0.02 | 78 | 1012.8 |
| 20260506022505 | 60 | 132 | 2.6 | 6.1 | 0.00 | 0.07 | 0.02 | 78 | 1012.9 |
| 20260506022007 | 60 | 106 | 3.5 | 6.1 | 0.00 | 0.07 | 0.02 | 78 | 1012.8 |
| 20260506021506 | 60 | 122 | 1.7 | 6.1 | 0.00 | 0.07 | 0.02 | 79 | 1012.7 |
| 20260506021006 | 60 | 92 | 0.9 | 3.5 | 0.00 | 0.07 | 0.02 | 79 | 1012.6 |
| 20260506020502 | 60 | 126 | 1.7 | 5.2 | 0.00 | 0.07 | 0.02 | 79 | 1012.5 |
| 20260506015504 | 60 | 109 | 1.7 | 6.1 | 0.00 | 0.08 | 0.02 | 78 | 1012.5 |
| 20260506015007 | 60 | 75 | 2.6 | 6.1 | 0.00 | 0.08 | 0.02 | 78 | 1012.4 |
| 20260506014504 | 60 | 84 | 3.5 | 7.8 | 0.00 | 0.08 | 0.02 | 78 | 1012.4 |
| 20260506014006 | 60 | 94 | 3.5 | 7.0 | 0.00 | 0.08 | 0.02 | 79 | 1012.4 |
| 20260506013504 | 60 | 84 | 3.5 | 7.8 | 0.00 | 0.08 | 0.02 | 78 | 1012.3 |
| 20260506012502 | 60 | 158 | 2.6 | 7.0 | 0.00 | 0.08 | 0.02 | 79 | 1012.3 |
| 20260506012003 | 60 | 137 | 3.5 | 7.0 | 0.00 | 0.08 | 0.02 | 78 | 1012.2 |
| 20260506011006 | 61 | 130 | 1.7 | 6.1 | 0.00 | 0.08 | 0.02 | 79 | 1012.1 |
| 20260506010504 | 61 | 53 | 2.6 | 7.0 | 0.00 | 0.08 | 0.02 | 79 | 1012.0 |
| 20260506010009 | 61 | 140 | 4.3 | 7.0 | 0.00 | 0.08 | 0.02 | 79 | 1012.0 |
| 20260506005505 | 61 | 161 | 5.2 | 8.7 | 0.00 | 0.08 | 0.02 | 79 | 1012.0 |
| 20260506005003 | 61 | 174 | 5.2 | 8.7 | 0.00 | 0.08 | 0.02 | 78 | 1012.0 |
| 20260506004505 | 61 | 155 | 4.3 | 7.8 | 0.00 | 0.08 | 0.02 | 78 | 1011.9 |
| 20260506004002 | 61 | 150 | 4.3 | 7.8 | 0.00 | 0.08 | 0.02 | 77 | 1011.9 |
| 20260506003502 | 61 | 171 | 4.3 | 7.0 | 0.00 | 0.08 | 0.02 | 79 | 1011.9 |
| 20260506003007 | 61 | 159 | 3.5 | 6.1 | 0.00 | 0.08 | 0.02 | 78 | 1011.9 |
| 20260506002504 | 61 | 155 | 3.5 | 7.0 | 0.00 | 0.08 | 0.02 | 77 | 1011.8 |
| 20260506002006 | 61 | 153 | 3.5 | 7.0 | 0.00 | 0.08 | 0.02 | 77 | 1011.8 |
| 20260506001502 | 61 | 153 | 2.6 | 6.1 | 0.00 | 0.08 | 0.02 | 77 | 1011.8 |
| 20260506001003 | 61 | 181 | 2.6 | 6.1 | 0.00 | 0.08 | 0.02 | 77 | 1011.8 |
| 20260506000504 | 61 | 143 | 0.9 | 6.1 | 0.00 | 0.08 | 0.02 | 76 | 1011.8 |
| 20260506000006 | 61 | 147 | 1.7 | 5.2 | 0.00 | 0.08 | 0.02 | 78 | 1011.7 |
| 20260505235504 | 61 | 148 | 3.5 | 6.1 | 0.00 | 0.08 | 0.02 | 77 | 1011.7 |
| 20260505235006 | 61 | 166 | 4.3 | 6.1 | 0.00 | 0.08 | 0.02 | 77 | 1011.8 |
| 20260505234505 | 61 | 215 | 3.5 | 5.2 | 0.00 | 0.08 | 0.02 | 77 | 1011.8 |
| 20260505232505 | 61 | 236 | 3.5 | 7.0 | 0.00 | 0.08 | 0.02 | 77 | 1011.9 |
| 20260505232005 | 61 | 171 | 3.5 | 7.8 | 0.00 | 0.08 | 0.02 | 78 | 1011.9 |
| 20260505231505 | 61 | 148 | 4.3 | 7.8 | 0.00 | 0.08 | 0.02 | 77 | 1011.8 |
| 20260505231002 | 61 | 203 | 4.3 | 7.8 | 0.00 | 0.08 | 0.02 | 77 | 1011.9 |
| 20260505230505 | 61 | 181 | 4.3 | 7.8 | 0.00 | 0.08 | 0.02 | 78 | 1012.0 |
| 20260505230003 | 61 | 207 | 4.3 | 7.8 | 0.00 | 0.08 | 0.02 | 77 | 1011.9 |
| 20260505225502 | 61 | 135 | 3.5 | 7.0 | 0.00 | 0.08 | 0.02 | 77 | 1012.0 |
| 20260505225005 | 61 | 211 | 4.3 | 8.7 | 0.00 | 0.08 | 0.02 | 77 | 1012.0 |
| 20260505224505 | 61 | 184 | 4.3 | 8.7 | 0.00 | 0.08 | 0.02 | 79 | 1012.0 |
| 20260505224006 | 61 | 198 | 5.2 | 8.7 | 0.00 | 0.08 | 0.02 | 78 | 1012.0 |
| 20260505223505 | 61 | 157 | 5.2 | 8.7 | 0.00 | 0.08 | 0.02 | 76 | 1012.0 |
| 20260505223005 | 61 | 211 | 5.2 | 9.6 | 0.00 | 0.08 | 0.02 | 79 | 1012.0 |
| 20260505222505 | 61 | 161 | 5.2 | 9.6 | 0.00 | 0.08 | 0.02 | 75 | 1012.1 |
| 20260505221504 | 61 | 173 | 6.1 | 9.6 | 0.00 | 0.08 | 0.02 | 76 | 1012.1 |
| 20260505221006 | 61 | 175 | 6.1 | 8.7 | 0.00 | 0.08 | 0.02 | 77 | 1012.1 |
| 20260505220008 | 61 | 161 | 5.2 | 9.6 | 0.00 | 0.08 | 0.02 | 76 | 1012.2 |
| 20260505215504 | 62 | 153 | 4.3 | 7.8 | 0.00 | 0.08 | 0.02 | 75 | 1012.2 |
| 20260505215006 | 62 | 165 | 4.3 | 8.7 | 0.00 | 0.08 | 0.02 | 80 | 1012.2 |
| 20260505214007 | 61 | 162 | 6.1 | 9.6 | 0.00 | 0.08 | 0.02 | 77 | 1012.3 |
| 20260505213006 | 61 | 185 | 6.1 | 9.6 | 0.00 | 0.08 | 0.02 | 79 | 1012.3 |
| 20260505212507 | 61 | 141 | 6.1 | 13.0 | 0.00 | 0.08 | 0.02 | 77 | 1012.2 |
| 20260505211503 | 61 | 198 | 7.0 | 12.2 | 0.00 | 0.08 | 0.02 | 76 | 1012.3 |
| 20260505210503 | 63 | 202 | 4.3 | 9.6 | 0.00 | 0.08 | 0.02 | 77 | 1012.4 |
| 20260505210008 | 62 | 192 | 4.3 | 8.7 | 0.00 | 0.08 | 0.02 | 77 | 1012.5 |
| 20260505205505 | 62 | 174 | 4.3 | 7.8 | 0.00 | 0.08 | 0.02 | 76 | 1012.4 |
| 20260505205003 | 62 | 222 | 5.2 | 10.4 | 0.00 | 0.08 | 0.02 | 79 | 1012.5 |
| 20260505204004 | 62 | 192 | 5.2 | 9.6 | 0.00 | 0.08 | 0.02 | 77 | 1012.5 |
| 20260505203502 | 61 | 252 | 5.2 | 9.6 | 0.00 | 0.08 | 0.02 | 78 | 1012.6 |
| 20260505202504 | 60 | 215 | 5.2 | 9.6 | 0.00 | 0.08 | 0.02 | 78 | 1012.6 |
| 20260505202006 | 60 | 163 | 4.3 | 8.7 | 0.00 | 0.08 | 0.02 | 78 | 1012.6 |
| 20260505201002 | 59 | 220 | 7.0 | 11.3 | 0.00 | 0.08 | 0.02 | 80 | 1012.8 |
| 20260505200502 | 59 | 161 | 6.1 | 11.3 | 0.00 | 0.08 | 0.02 | 79 | 1012.8 |
| 20260505195504 | 60 | 191 | 4.3 | 8.7 | 0.00 | 0.08 | 0.02 | 79 | 1012.8 |
| 20260505195012 | 60 | 181 | 4.3 | 7.8 | 0.00 | 0.08 | 0.02 | 82 | 1012.8 |
| 20260505194502 | 60 | 182 | 5.2 | 7.8 | 0.00 | 0.08 | 0.02 | 79 | 1012.8 |
| 20260505194004 | 60 | 169 | 5.2 | 9.6 | 0.00 | 0.08 | 0.02 | 80 | 1012.9 |
| 20260505193002 | 60 | 165 | 4.3 | 9.6 | 0.00 | 0.08 | 0.02 | 79 | 1012.9 |
| 20260505192502 | 60 | 189 | 4.3 | 7.8 | 0.00 | 0.08 | 0.02 | 81 | 1013.0 |
| 20260505192003 | 60 | 173 | 4.3 | 7.0 | 0.00 | 0.08 | 0.02 | 78 | 1013.0 |
| 20260505191502 | 60 | 148 | 3.5 | 7.8 | 0.00 | 0.08 | 0.02 | 77 | 1013.0 |
| 20260505191007 | 60 | 182 | 3.5 | 7.8 | 0.00 | 0.08 | 0.02 | 80 | 1013.0 |
| 20260505190505 | 60 | 179 | 2.6 | 7.0 | 0.00 | 0.08 | 0.02 | 78 | 1013.0 |
| 20260505190003 | 60 | 168 | 2.6 | 7.0 | 0.00 | 0.08 | 0.02 | 79 | 1013.0 |
| 20260505185504 | 59 | 186 | 2.6 | 7.8 | 0.00 | 0.08 | 0.02 | 83 | 1012.9 |
| 20260505185008 | 59 | 77 | 3.5 | 7.8 | 0.00 | 0.08 | 0.02 | 80 | 1013.0 |
| 20260505184506 | 59 | 130 | 3.5 | 7.8 | 0.00 | 0.08 | 0.02 | 73 | 1013.1 |
| 20260505184003 | 59 | 198 | 4.3 | 7.0 | 0.00 | 0.08 | 0.02 | 81 | 1013.1 |
| 20260505183008 | 58 | 146 | 4.3 | 8.7 | 0.00 | 0.08 | 0.02 | 82 | 1013.0 |
| 20260505182505 | 57 | 151 | 6.1 | 8.7 | 0.00 | 0.08 | 0.02 | 82 | 1013.1 |
| 20260505182007 | 57 | 164 | 5.2 | 8.7 | 0.00 | 0.08 | 0.02 | 86 | 1013.1 |
| 20260505181508 | 56 | 150 | 4.3 | 7.8 | 0.00 | 0.08 | 0.02 | 84 | 1013.1 |
| 20260505181007 | 56 | 161 | 4.3 | 7.0 | 0.00 | 0.08 | 0.02 | 85 | 1013.1 |
| 20260505180503 | 56 | 168 | 3.5 | 6.1 | 0.00 | 0.08 | 0.02 | 86 | 1013.1 |
| 20260505180010 | 56 | 138 | 2.6 | 6.1 | 0.00 | 0.08 | 0.02 | 85 | 1013.0 |
| 20260505175506 | 56 | 152 | 3.5 | 7.0 | 0.00 | 0.08 | 0.02 | 85 | 1013.1 |
| 20260505175003 | 56 | 154 | 4.3 | 7.0 | 0.00 | 0.08 | 0.02 | 85 | 1013.1 |
| 20260505174504 | 56 | 154 | 3.5 | 6.1 | 0.00 | 0.08 | 0.02 | 85 | 1013.1 |
| 20260505174003 | 56 | 159 | 2.6 | 6.1 | 0.00 | 0.08 | 0.02 | 86 | 1013.1 |
| 20260505173505 | 56 | 155 | 3.5 | 6.1 | 0.00 | 0.08 | 0.02 | 86 | 1013.0 |
| 20260505173003 | 55 | 141 | 4.3 | 7.0 | 0.00 | 0.08 | 0.02 | 86 | 1013.0 |
| 20260505172500 | 55 | 154 | 4.3 | 7.0 | 0.00 | 0.08 | 0.02 | 87 | 1013.0 |
| 20260505172007 | 55 | 153 | 3.5 | 6.1 | 0.00 | 0.08 | 0.02 | 86 | 1013.0 |
| 20260505170505 | 55 | 145 | 3.5 | 6.1 | 0.00 | 0.08 | 0.02 | 87 | 1013.0 |
| 20260505170002 | 54 | 144 | 3.5 | 5.2 | 0.00 | 0.08 | 0.02 | 88 | 1013.0 |
| 20260505165502 | 54 | 157 | 2.6 | 6.1 | 0.00 | 0.08 | 0.02 | 87 | 1013.0 |
| 20260505164507 | 54 | 149 | 2.6 | 6.1 | 0.00 | 0.08 | 0.02 | 88 | 1013.1 |
| 20260505164010 | 54 | 153 | 2.6 | 6.1 | 0.00 | 0.08 | 0.02 | 88 | 1013.2 |
| 20260505163502 | 54 | 148 | 2.6 | 4.3 | 0.00 | 0.08 | 0.02 | 90 | 1013.1 |
| 20260505163009 | 54 | 148 | 2.6 | 4.3 | 0.00 | 0.08 | 0.02 | 89 | 1013.1 |
| 20260505162505 | 53 | 148 | 2.6 | 5.2 | 0.00 | 0.08 | 0.02 | 90 | 1013.1 |
| 20260505160502 | 53 | 154 | 2.6 | 6.1 | 0.00 | 0.08 | 0.02 | 90 | 1013.1 |
| 20260505153007 | 52 | 158 | 4.3 | 6.1 | 0.00 | 0.08 | 0.02 | 93 | 1013.0 |
| 20260505152459 | 52 | 161 | 3.5 | 6.1 | 0.00 | 0.08 | 0.02 | 93 | 1013.0 |
| 20260505151505 | 52 | 152 | 3.5 | 6.1 | 0.00 | 0.08 | 0.02 | 93 | 1012.9 |
| 20260505151009 | 52 | 159 | 3.5 | 6.1 | 0.00 | 0.08 | 0.02 | 93 | 1012.8 |
| 20260505150500 | 52 | 159 | 2.6 | 4.3 | 0.00 | 0.08 | 0.02 | 93 | 1012.8 |
| 20260505140504 | 51 | 157 | 1.7 | 4.3 | 0.00 | 0.08 | 0.02 | 94 | 1012.6 |
| 20260505124504 | 51 | 128 | 0.0 | 0.0 | 0.00 | 0.08 | 0.02 | 94 | 1012.1 |
| 20260505123503 | 51 | 128 | 0.0 | 0.0 | 0.00 | 0.08 | 0.02 | 95 | 1012.1 |
| 20260505123003 | 51 | 128 | 0.0 | 0.0 | 0.00 | 0.08 | 0.02 | 95 | 1012.1 |
| 20260505122500 | 51 | 128 | 0.0 | 0.0 | 0.00 | 0.08 | 0.02 | 94 | 1012.0 |
| 20260505122004 | 51 | 128 | 0.0 | 0.0 | 0.00 | 0.08 | 0.02 | 95 | 1012.1 |
| 20260505121504 | 51 | 128 | 0.0 | 0.0 | 0.00 | 0.08 | 0.02 | 95 | 1012.1 |
| 20260505120003 | 51 | 128 | 0.0 | 0.0 | 0.00 | 0.08 | 0.02 | 94 | 1012.1 |
| 20260505115500 | 51 | 128 | 0.9 | 2.6 | 0.00 | 0.08 | 0.02 | 95 | 1012.1 |
| 20260505115002 | 51 | 128 | 0.9 | 2.6 | 0.00 | 0.08 | 0.02 | 94 | 1012.1 |
| 20260505114500 | 51 | 128 | 0.9 | 1.7 | 0.00 | 0.08 | 0.02 | 94 | 1012.0 |
| 20260505114002 | 51 | 128 | 0.0 | 1.7 | 0.00 | 0.08 | 0.02 | 95 | 1012.0 |
| 20260505113002 | 51 | 128 | 0.0 | 0.0 | 0.00 | 0.08 | 0.02 | 94 | 1012.0 |
| 20260505112504 | 51 | 128 | 0.0 | 0.0 | 0.00 | 0.08 | 0.02 | 94 | 1012.0 |
| 20260505112005 | 51 | 128 | 0.0 | 0.0 | 0.00 | 0.08 | 0.02 | 94 | 1012.1 |
| 20260505111503 | 51 | 128 | 0.0 | 0.0 | 0.00 | 0.08 | 0.02 | 94 | 1012.0 |
| 20260505110500 | 51 | 128 | 0.0 | 0.0 | 0.00 | 0.08 | 0.02 | 94 | 1012.0 |